Location: Arroyo Retuerta
(40.5469°N, 4.3534°W)
Time: 12:22:21
(UTC+00:00)

STARLINK-1111 - Pass Details

Date: 01 June 2020
Orbit: 549 x 550 km, 53.0° (Epoch: 06 July)

Event Time Altitude Azimuth Distance (km) Brightness Sun altitude
Rises 22:14:32 0° 310° (NW) 2,719 8.4 -21.2°
Reaches altitude 10° 22:16:47 10° 312° (NW) 1,823 7.3 -21.4°
Maximum altitude 22:20:55 75° 38° (NE) 571 3.6 -21.8°
Enters shadow 22:21:20 67° 88° (E) 595 3.6 -21.9°
